{"data":{"norad_id":39444,"intl_designator":"2013-066AE","name":"FUNCUBE-1 (AO-73)","alt_names":[],"object_type":"PAYLOAD","status":"ACTIVE","operator":null,"country":"UK","launch_date":"2013-11-21","launch_site_code":"DLS","launch_vehicle":null,"mission":null,"orbit_class":"UNKNOWN","rcs_meters":0.0552,"size_class":null,"mass_kg":null,"dimensions":null,"purposes":["comms","tech_demo"],"wikipedia_slug":null,"has_3d_model":false,"image_url":null,"decayed_at":null,"tle_current":{"epoch":"2026-09-18T21:16:03.557856Z","epoch_age_seconds":153858,"freshness":"FRESH","line1":"1 39444U 13066AE  26261.88615229  .00005265  00000+0  31844-3 0  9998","line2":"2 39444  97.8389 235.4218 0033773 243.5172 116.2592 15.10630929693800","mean_motion":15.10630929,"eccentricity":0.0033773,"inclination_deg":97.8389,"raan_deg":235.4218,"arg_perigee_deg":243.5172,"mean_anomaly_deg":116.2592,"bstar":0.00031844,"rev_number":69380,"period_min":95.324408653095,"perigee_km":510.92935658625,"apogee_km":557.61993227973,"semimajor_km":6912.411644433,"source":"CELESTRAK","updated_at":"2026-09-20T09:00:48.023717Z"}}}